Weather History for Ukiah, CA

Change the Weather History Date:

Saturday, March 31, 2012

  Actual Average Record
Temperature  
Mean Temperature 49 °F 52 °F  
Max Temperature 54 °F 65 °F 90 °F (1966)
Min Temperature 44 °F 40 °F 27 °F (1917)
Degree Days  
Heating Degree Days 16 13  
Month to date heating degree days 499 414  
Since 1 July heating degree days 2737 2647  
Cooling Degree Days 0 0  
Month to date cooling degree days 0 0  
Year to date cooling degree days 0 0  
Moisture  
Dew Point 44 °F    
Average Humidity 76    
Maximum Humidity 93    
Minimum Humidity 59    
Precipitation  
Precipitation 1.06 in 0.16 in 1.64 in (1982)
Month to date precipitation 9.47 5.52  
Year to date precipitation 17.29 19.07  
Since 1 July precipitation 24.01 33.04  
Snow  
Snow 0.00 in - - ()
Month to date snowfall 0.0  
Since 1 July snowfall 0.0  
Snow Depth 0.00 in    
Sea Level Pressure  
Sea Level Pressure 29.77 in    
Wind  
Wind Speed 9 mph (SSE)    
Max Wind Speed 17 mph    
Max Gust Speed 30 mph    
Visibility 7 miles    
Events Rain    
T = Trace of Precipitation, MM = Missing Value Source: NWS Daily Summary

Daily Weather History Graph

Daily Weather History Graph

Search for Another Location

Airport:

Trip Planner

Search our weather history database for the weather conditions in past years. The results will help you decide how hot, cold, wet, or windy it might be!

Date:

Astronomy

Mar. 31, 2012 Rise Set
Actual Time 6:57 AM PDT 7:36 PM PDT
Civil Twilight 6:31 AM PDT 8:03 PM PDT
Nautical Twilight 5:59 AM PDT 8:35 PM PDT
Astronomical Twilight 5:26 AM PDT 9:07 PM PDT
Moon 1:12 PM PDT (3/31) 2:55 AM PDT (3/31)
Length of Visible Light 13h 32m
Length of Day
12h 38m
First Quarter, 60% of the Moon is Illuminated
Mar 31
First Quarter
Apr 6
Full
Apr 13
Last Quarter
Apr 21
New
Apr 29
First Quarter

Hourly Weather History & Observations

Time (PDT) Temp. Windchill Dew Point Humidity Pressure Visibility Wind Dir Wind Speed Gust Speed Precip Events Conditions
12:56 AM 54.0 °F - 51.1 °F 90% 29.80 in 8.0 mi SSE 9.2 mph - 0.01 in Rain Light Rain
1:56 AM 54.0 °F - 52.0 °F 93% 29.77 in 10.0 mi SSE 10.4 mph - 0.00 in Rain Light Rain
2:56 AM 53.1 °F - 52.0 °F 96% 29.74 in 7.0 mi SSE 11.5 mph - 0.02 in Rain Light Rain
3:03 AM 53.6 °F - 51.8 °F 94% 29.75 in 5.0 mi SSE 9.2 mph - 0.00 in Rain Light Rain
3:47 AM 53.6 °F - 51.8 °F 94% 29.73 in 7.0 mi SSE 5.8 mph 16.1 mph 0.01 in Rain Light Rain
3:56 AM 53.6 °F - 51.8 °F 94% 29.72 in 10.0 mi SSE 11.5 mph 17.3 mph N/A Rain Light Rain
4:56 AM 53.1 °F - 51.1 °F 93% 29.66 in 10.0 mi SSE 12.7 mph 20.7 mph 0.01 in   Overcast
5:40 AM 53.6 °F - 51.8 °F 94% 29.64 in 3.0 mi SSE 12.7 mph 20.7 mph 0.01 in Rain Rain
5:56 AM 53.1 °F - 51.1 °F 93% 29.63 in 3.0 mi SSE 8.1 mph 18.4 mph 0.02 in Rain Rain
6:20 AM 53.6 °F - 51.8 °F 94% 29.63 in 4.0 mi SSE 10.4 mph - N/A Rain Rain
6:56 AM 50.0 °F - 44.1 °F 80% 29.65 in 6.0 mi WSW 17.3 mph 27.6 mph N/A Rain Rain
7:56 AM 46.9 °F - 41.0 °F 80% 29.70 in 4.0 mi Calm Calm - 0.12 in Rain Rain
8:54 AM 46.4 °F 44.3 °F 44.6 °F 93% 29.73 in 4.0 mi ESE 4.6 mph - 0.10 in Rain Rain
8:56 AM 46.0 °F 43.1 °F 44.1 °F 93% 29.72 in 4.0 mi ESE 5.8 mph - 0.11 in Rain Rain
9:31 AM 44.6 °F 40.7 °F 41.0 °F 87% 29.71 in 8.0 mi SE 6.9 mph - 0.06 in Rain Light Rain
9:56 AM 45.0 °F 40.6 °F 42.1 °F 90% 29.72 in 10.0 mi SE 8.1 mph - 0.11 in Rain Light Rain
10:31 AM 44.6 °F 40.7 °F 42.8 °F 93% 29.73 in 10.0 mi SSE 6.9 mph - 0.06 in   Overcast
10:56 AM 46.0 °F 42.5 °F 42.1 °F 86% 29.73 in 4.0 mi SE 6.9 mph - 0.09 in Rain Light Rain
11:56 AM 48.0 °F - 44.1 °F 86% 29.73 in 10.0 mi SE 12.7 mph - 0.09 in Rain Light Rain
12:56 PM 51.8 °F - 39.2 °F 62% 29.75 in 9.0 mi SSW 8.1 mph 21.9 mph N/A Rain Light Rain
1:56 PM 52.0 °F - 43.0 °F 71% 29.74 in 10.0 mi South 8.1 mph 16.1 mph 0.03 in Rain Light Rain
2:56 PM 52.0 °F - 41.0 °F 66% 29.74 in 10.0 mi Variable 4.6 mph 20.7 mph 0.01 in   Mostly Cloudy
3:56 PM 52.0 °F - 37.9 °F 59% 29.75 in 10.0 mi SSW 15.0 mph 24.2 mph 0.01 in   Mostly Cloudy
4:43 PM 48.2 °F - 41.0 °F 76% 29.77 in 2.5 mi SSW 8.1 mph 26.5 mph 0.01 in Rain Light Rain
4:56 PM 50.0 °F - 41.0 °F 71% 29.77 in 10.0 mi SSW 8.1 mph - N/A Rain Light Rain
5:56 PM 46.0 °F 44.8 °F 42.1 °F 86% 29.79 in 4.0 mi Variable 3.5 mph - 0.05 in Rain Rain
6:02 PM 46.4 °F 42.9 °F 42.8 °F 87% 29.80 in 2.5 mi SW 6.9 mph - 0.00 in Rain Heavy Rain
6:14 PM 46.4 °F 44.3 °F 42.8 °F 87% 29.82 in 2.0 mi NW 4.6 mph 18.4 mph 0.02 in Rain Rain
6:31 PM 46.4 °F - 39.2 °F 76% 29.82 in 8.0 mi Calm Calm - 0.03 in Rain Light Rain
6:56 PM 45.0 °F 41.2 °F 41.0 °F 86% 29.82 in 9.0 mi East 6.9 mph - 0.06 in Rain Light Rain
7:08 PM 46.4 °F 43.5 °F 41.0 °F 81% 29.83 in 10.0 mi South 5.8 mph - 0.02 in Rain Light Rain
7:48 PM 44.6 °F 43.1 °F 42.8 °F 93% 29.85 in 9.0 mi SW 3.5 mph - N/A Rain Light Rain
7:56 PM 45.0 °F - 43.0 °F 93% 29.85 in 5.0 mi Calm Calm - 0.07 in Rain Rain
8:04 PM 44.6 °F - 42.8 °F 93% 29.85 in 9.0 mi Calm Calm - 0.01 in Rain Light Rain
8:56 PM 44.6 °F 43.1 °F 42.8 °F 93% 29.88 in 6.0 mi NNE 3.5 mph - N/A Rain Rain
9:56 PM 45.0 °F 42.6 °F 43.0 °F 93% 29.91 in 7.0 mi ESE 4.6 mph - 0.06 in Rain Light Rain
10:56 PM 46.0 °F 40.2 °F 39.0 °F 76% 29.95 in 10.0 mi WNW 12.7 mph 25.3 mph 0.06 in Rain Light Rain
11:56 PM 45.0 °F 37.9 °F 39.0 °F 80% 29.99 in 9.0 mi NW 16.1 mph 23.0 mph 0.06 in Rain Light Rain